Regional Weather Roundup
Issued by NWS

Home | Current Version | Previous Version | Graphics & Text | Print | Product List | Glossary On
Versions: 1 2 3 4 5 6 7 8 9 10 11 12 13 14 15 16 17 18 19 20 21 22 23 24 25 26 27 28 29 30 31 32 33 34 35 36 37 38 39 40 41 42 43 44 45 46 47 48 49 50
000
ASUS43 KOAX 281510
RWRNE

WEATHER ROUNDUP FOR NEBRASKA
NATIONAL WEATHER SERVICE OMAHA NE
1000 AM CDT TUE JUL 28 2015

NOTES: SATELLITE DATA IS BEING USED TO AUGMENT CLOUD COVER ABOVE
       12000 FEET.
       "FAIR" INDICATES FEW OR NO CLOUDS BELOW 12,000 FEET WITH NO
       SIGNIFICANT WEATHER AND/OR OBSTRUCTIONS TO VISIBILITY.

  * THESE STATIONS DO NOT REPORT WEATHER SUCH AS RAIN...SNOW OR FOG.

NEZ001>004-019>022-054>056-281600-
NEBRASKA PANHANDLE

CITY           SKY/WX    TMP DP  RH WIND       PRES   REMARKS
SCOTTSBLUFF    SUNNY     65  50  58 NW6       30.09R
ALLIANCE       SUNNY     65  46  50 NW10      30.07S
CHADRON        SUNNY     63  47  55 NW13      30.07R
KIMBALL        SUNNY     67  31  26 NW22G31   30.10S
SIDNEY         SUNNY     70  40  33 N18G24    30.11R
$$

NEZ057>060-069>072-079>082-281600-
SOUTHWEST NEBRASKA

CITY           SKY/WX    TMP DP  RH WIND       PRES   REMARKS
NORTH PLATTE   SUNNY     74  53  48 N12       29.99R
IMPERIAL       LGT RAIN  76  44  32 N18G28    30.02R
LEXINGTON      MOSUNNY   72  53  52 N16G23    29.95R
MCCOOK         SUNNY     75  50  41 N22G29    29.96R
OGALLALA       SUNNY     72  49  44 NW15G21   30.03S
$$

NEZ005>010-023>029-035>040-094-281600-
NORTH CENTRAL NEBRASKA

CITY           SKY/WX    TMP DP  RH WIND       PRES   REMARKS
VALENTINE      SUNNY     71  45  39 NW22G30   29.98R
AINSWORTH      SUNNY     70  49  46 N20G28    29.99R
BROKEN BOW     MOSUNNY   73  52  47 N16G24    29.96R
O`NEILL        SUNNY     70  61  73 NW18G24   29.95R
ORD            PTSUNNY   71  57  61 N21G28    29.92R
THEDFORD       SUNNY     71  55  57 N16       30.01R
$$

NEZ041-046>049-061>064-073>077-083>087-281600-
SOUTH CENTRAL NEBRASKA

CITY           SKY/WX    TMP DP  RH WIND       PRES   REMARKS
GRAND ISLAND   CLOUDY    79  72  79 NW14      29.86R
AURORA         MOSUNNY   82  74  76 SW6       29.83R
HASTINGS       MOSUNNY   83  72  69 W6        29.85R
HEBRON         SUNNY     84  66  53 SW10G18   29.82S
HOLDREGE       MOSUNNY   73  60  64 N20G30    29.90R
KEARNEY *      PTSUNNY   73  61  64 N25G32    29.90R
YORK           MOSUNNY   81  72  74 S7        29.83S
$$

NEZ011>018-030>034-042>045-281600-
NORTHEAST NEBRASKA

CITY           SKY/WX    TMP DP  RH WIND       PRES   REMARKS
NORFOLK        CLOUDY    77  73  87 CALM      29.85R
ALBION         CLOUDY    75  67  75 NW20G25   29.88R
BLAIR          CLOUDY    71  68  90 E8G17     29.86F
COLUMBUS *     PTSUNNY   79  70  73 SE7       29.83R
FREMONT        CLOUDY    74  71  89 E16G22    29.85F
TEKAMAH        TSTM      72  70  93 S10       29.83F
WAYNE          MOSUNNY   75  71  86 SW10      29.86R
$$

NEZ050>053-065>068-078-088>093-281600-
SOUTHEAST NEBRASKA

CITY           SKY/WX    TMP DP  RH WIND       PRES   REMARKS
LINCOLN        MOSUNNY   82  75  79 E13       29.85S
OMAHA EPPLEY   CLOUDY    73  70  90 E15G24    29.86F
BEATRICE       MOSUNNY   85  71  63 CALM      29.86R HX  90
FALLS CITY     MOSUNNY   85  74  69 S10       29.86R HX  92
NEBRASKA CITY  PTSUNNY   81  73  78 NE10G16   29.88F
PLATTSMOUTH    CLOUDY    76  75  98 E10       29.88F
$$

NEZ044-045-051>053-067-281600-
OMAHA AREA

CITY           SKY/WX    TMP DP  RH WIND       PRES   REMARKS
OMAHA EPPLEY   CLOUDY    73  70  90 E15G24    29.86F
BLAIR          CLOUDY    71  68  90 E8G17     29.86F
FREMONT        CLOUDY    74  71  89 E16G22    29.85F
MILLARD        CLOUDY    74  72  91 E8        29.86S
OFFUTT AFB     PTSUNNY   76  73  92 E12       29.86F
PLATTSMOUTH    CLOUDY    76  75  98 E10       29.88F
WAHOO          FAIR      76  73  91 E13       29.85S
$$


USA.gov is the U.S. government's official web portal to all federal, state and local government web resources and services.